Weerstation Grootegast  Weerstation Grootegast


15 daagse weersverwachting Klagenfurt am Wörthersee (AT)

  • Overzicht
  • Per uur
  • 15 dagen
  • Extra
  • Vergelijk
  • Kaarten
  • Dagkaart
  • Meer »
  • Info
  • Statistieken
  • Directe link
    Temp 6h Neerslag Wind  
 07:32     16:15    Daglengte: 8:43 Vandaag
19:00
-2°
 
1
 07:33     16:15    Daglengte: 8:42 Morgen
01:00
-0°
1.1 mm
2
warningclass
07:00
6.1 mm
2
13:00
7.8 mm
2
19:00
0.6 mm
2
 07:34     16:15    Daglengte: 8:41 Zondag 06 Dec
01:00
1.9 mm
2
07:00
20.9 mm
1
13:00
33.1 mm
3
19:00
41.5 mm
3
 07:35     16:15    Daglengte: 8:40 Maandag 07 Dec
01:00
40.7 mm
1
07:00
41.5 mm
1
Locatie info
Region: Kärnten
Latitude: 46.6206°N
Longitude: 14.3104°E
450 masl
Postcode: 9020
Temp/Neerslag /Baro Onweer/DauwpuntSneeuw
    Temp Baro 1h Neerslag Dauwpunt Wind UV BewolkingSneeuw  
 07:32     16:15    Daglengte: 8:43 Vandaag
16:00
Voelt als: 0.0°
1004.2 hPa   -1.1°
1
Windvlaag: 0.2 m/s
62%9 cm
17:00
-0°
Voelt als: -0.1°
1004.3 hPa   -1.8°
1
Windvlaag: 0.7 m/s
85%9 cm
18:00
-1°
Voelt als: -1.8°
1004.3 hPa   -2.3°
1
Windvlaag: 0.8 m/s
68%9 cm
19:00
-2°
Voelt als: -2.5°
1004.4 hPa
23%
-2.8°
1
Windvlaag: 1 m/s
76%9 cm
20:00
-2°
Voelt als: -2.6°
1004.4 hPa
46%
-2.5°
1
Windvlaag: 1 m/s
74%9 cm
21:00
-2°
Voelt als: -2.3°
1004.2 hPa
47%
-2.3°
1
Windvlaag: 0.8 m/s
80%9 cm
22:00
-1°
Voelt als: -2.1°
1004.1 hPa
49%
-2.3°
1
Windvlaag: 0.6 m/s
80%9 cm
23:00
-1°
Voelt als: -2.7°
1003.8 hPa 0.2 mm
82%
-1.8°
1
Windvlaag: 0.4 m/s
79%9 cm warningclass
 07:33     16:15    Daglengte: 8:42 Morgen
00:00
-1°
Voelt als: -2.4°
1003.7 hPa 0.5 mm
82%
-1.5°
1
Windvlaag: -0.8 m/s
84%9 cm warningclass
01:00
-0°
Voelt als: -2.2°
1003.1 hPa 0.4 mm
82%
-1.0°
2
Windvlaag: -1.1 m/s
84%9 cm warningclass
02:00
Voelt als: -1.8°
1002.8 hPa 0.5 mm
82%
-0.6°
2
Windvlaag: -0.8 m/s
87%9 cm warningclass
03:00
Voelt als: -1.4°
1002.5 hPa 0.7 mm
82%
-0.5°
1
Windvlaag: 0.2 m/s
87%9 cm warningclass
04:00
Voelt als: -0.8°
1002.5 hPa 0.9 mm
82%
0.0°
2
Windvlaag: 0.6 m/s
78%9 cm warningclass
05:00
Voelt als: -0.0°
1002.7 hPa 1.1 mm
82%
0.8°
2
Windvlaag: 0.2 m/s
74%8 cm
06:00
Voelt als: 0.7°
1003.0 hPa 1.4 mm
82%
1.6°
2
Windvlaag: -0.2 m/s
74%8 cm
07:00
Voelt als: 0.9°
1003.5 hPa 1.4 mm
82%
1.8°
2
Windvlaag: -0.3 m/s
80%8 cm
08:00
Voelt als: 1.0°
1004.1 hPa 0.9 mm
82%
2.0°
2
Windvlaag: -0.2 m/s
88%8 cm
09:00
Voelt als: 1.5°
1004.6 hPa 1.3 mm
82%
2.3°
2
Windvlaag: -0.1 m/s
90%8 cm
10:00
Voelt als: 2.1°
1005.0 hPa 1.4 mm
82%
2.6°
2
Windvlaag: -0.1 m/s
84%7 cm
11:00
Voelt als: 3.0°
1005.2 hPa 1.6 mm
82%
2.9°
2
Windvlaag: 0.1 m/s
83%7 cm
12:00
Voelt als: 3.6°
1004.7 hPa 1.4 mm
82%
2.8°
1
Windvlaag: 0.2 m/s
88%7 cm
13:00
Voelt als: 3.0°
1004.7 hPa 1.3 mm
82%
3.0°
2
Windvlaag: -0.4 m/s
83%7 cm
14:00
Voelt als: 3.6°
1004.7 hPa 0.6 mm
82%
3.0°
2
Windvlaag: -0.6 m/s
81%6 cm
15:00
Voelt als: 3.3°
1004.7 hPa
82%
3.0°
2
Windvlaag: -0.5 m/s
75%6 cm
16:00
Voelt als: 3.1°
1004.8 hPa
82%
2.9°
2
Windvlaag: -0.3 m/s
65%6 cm
17:00
Voelt als: 3.0°
1005.0 hPa
82%
2.9°
2
Windvlaag: -0.2 m/s
51%6 cm
18:00
Voelt als: 3.0°
1005.4 hPa
76%
3.1°
2
Windvlaag: -0.2 m/s
66%6 cm
19:00
Voelt als: 3.1°
1005.7 hPa
31%
3.2°
2
Windvlaag: -0.2 m/s
77%5 cm
20:00
Voelt als: 2.8°
1005.7 hPa
74%
3.2°
2
Windvlaag: -0.2 m/s
75%5 cm
21:00
Voelt als: 2.7°
1005.9 hPa 0.5 mm
82%
3.3°
2
Windvlaag: -0.4 m/s
88%5 cm
22:00
Voelt als: 3.1°
1005.9 hPa
82%
3.6°
2
Windvlaag: -1 m/s
89%5 cm
23:00
Voelt als: 2.8°
1005.9 hPa
82%
3.7°
2
Windvlaag: -0.3 m/s
85%5 cm
 07:34     16:15    Daglengte: 8:41 Zondag 06 Dec
00:00
Voelt als: 2.9°
1005.9 hPa 0.6 mm
82%
3.9°
2
Windvlaag: -0.3 m/s
89%5 cm
01:00
Voelt als: 3.4°
1005.5 hPa 0.8 mm
82%
4.0°
2
Windvlaag: -0.1 m/s
90%5 cm
02:00
Voelt als: 4.1°
1005.2 hPa 0.9 mm
82%
4.4°
2
Windvlaag: -0.2 m/s
90%5 cm
03:00
Voelt als: 4.2°
1004.8 hPa 1.7 mm
82%
4.6°
2
Windvlaag: -0.2 m/s
90%4 cm
04:00
Voelt als: 4.4°
1004.3 hPa 2.8 mm
82%
4.5°
2
Windvlaag: -0.1 m/s
91%4 cm
05:00
Voelt als: 4.6°
1003.9 hPa 4.1 mm
82%
4.5°
2
Windvlaag: -1 m/s
91%4 cm
06:00
Voelt als: 5.2°
1003.7 hPa 5.0 mm
82%
4.3°
1
Windvlaag: -0.7 m/s
91%4 cm
07:00
Voelt als: 4.4°
1003.7 hPa 6.4 mm
82%
4.2°
1
Windvlaag: -0.5 m/s
91%4 cm
08:00
Voelt als: 3.5°
1003.8 hPa 5.7 mm
82%
4.1°
2
Windvlaag: 0.1 m/s
91%4 cm
09:00
Voelt als: 3.1°
1004.0 hPa 5.1 mm
82%
4.1°
2
Windvlaag: 0.6 m/s
91%4 cm
10:00
Voelt als: 5.2°
1003.2 hPa 5.1 mm
100%
4.5°
1
Windvlaag: 0.4 m/s
100%4 cm
11:00
Voelt als: 4.8°
1002.8 hPa 5.3 mm
100%
4.6°
2
Windvlaag: 0.5 m/s
100%4 cm
12:00
Voelt als: 3.6°
1002.0 hPa 5.8 mm
100%
4.5°
3
Windvlaag: 0.6 m/s
100%4 cm
13:00
Voelt als: 3.3°
1001.6 hPa 6.1 mm
100%
4.4°
3
Windvlaag: 0.2 m/s
100%4 cm
14:00
Voelt als: 3.8°
1001.1 hPa 5.7 mm
100%
4.6°
3
Windvlaag: 0.2 m/s
100%3 cm
15:00
Voelt als: 3.5°
1000.5 hPa 6.0 mm
100%
4.8°
4
Windvlaag: 0.5 m/s
100%3 cm
16:00
Voelt als: 2.9°
1000.1 hPa 6.7 mm
100%
4.7°
4
Windvlaag: 0.8 m/s
100%3 cm
17:00
Voelt als: 3.5°
1000.1 hPa 7.7 mm
100%
4.6°
3
Windvlaag: 0.7 m/s
100%3 cm
18:00
Voelt als: 3.0°
999.9 hPa 8.1 mm
100%
4.3°
2
Windvlaag: 0.5 m/s
100%3 cm
19:00
Voelt als: 3.0°
999.5 hPa 7.4 mm
100%
4.4°
3
Windvlaag: 0.3 m/s
100%3 cm
20:00
Voelt als: 4.3°
999.9 hPa 7.7 mm
100%
4.4°
2
Windvlaag: 0.4 m/s
100%3 cm
21:00
Voelt als: 3.4°
999.8 hPa 7.3 mm
100%
4.2°
2
Windvlaag: 0.5 m/s
100%3 cm
22:00
Voelt als: 5.5°
999.8 hPa 7.5 mm
100%
4.6°
1
Windvlaag: 0.5 m/s
100%3 cm
23:00
Voelt als: 4.6°
1000.1 hPa 6.2 mm
100%
4.0°
1
Windvlaag: -0.3 m/s
100%3 cm
 07:35     16:15    Daglengte: 8:40 Maandag 07 Dec
00:00
Voelt als: 4.1°
1000.3 hPa 6.2 mm
100%
3.8°
1
Windvlaag: -0.2 m/s
100%3 cm
01:00
Voelt als: 3.8°
1000.4 hPa 5.9 mm
100%
3.6°
1
Windvlaag: 0.2 m/s
96%3 cm
02:00
Voelt als: 3.2°
1001.0 hPa 8.0 mm
100%
3.2°
1
Windvlaag: 0.2 m/s
91%3 cm
03:00
Voelt als: 2.5°
1001.6 hPa 7.8 mm
100%
2.7°
1
Windvlaag: -0.1 m/s
84%3 cm
04:00
Voelt als: 2.1°
1002.1 hPa 12.8 mm
100%
2.4°
1
Windvlaag: -1.2 m/s
75%3 cm
05:00
Voelt als: 1.7°
1002.6 hPa 12.8 mm
100%
1.9°
1
Windvlaag: -2.3 m/s
68%3 cm
06:00
Voelt als: 1.3°
1003.2 hPa
92%
1.5°
1
Windvlaag: -1.1 m/s
59%3 cm
07:00
Voelt als: 1.3°
1003.8 hPa
40%
0.9°
1
Windvlaag: 0.1 m/s
51%3 cm
08:00
Voelt als: 1.5°
1004.2 hPa
26%
1.1°
1
Windvlaag: 2 m/s
43%3 cm
09:00
Voelt als: 2.4°
1004.6 hPa
23%
1.4°
1
Windvlaag: 1.7 m/s
38%3 cm
10:00
Voelt als: 3.4°
1005.0 hPa
21%
1.5°
1
Windvlaag: 1.2 m/s
52%3 cm
11:00
Voelt als: 4.5°
1005.2 hPa
21%
1.7°
1
Windvlaag: 1.7 m/s
57%3 cm
12:00
Voelt als: 5.0°
1005.3 hPa
21%
2.0°
1
Windvlaag: 3 m/s
44%2 cm
13:00
1005.4 hPa
21%
2.0°
1
Windvlaag: 0.2 m/s
43%2 cm
Temp/Neerslag /Baro Onweer/DauwpuntSneeuw
    Temp Baro Neerslag Dauwpunt Wind BewolkingSneeuw  
 07:32     16:15    Daglengte: 8:43 Vandaag
16:00
Voelt als: 0.0°
1004.2 hPa   -1.1°
1
62%9 cm
19:00
-2°
Voelt als: -2.5°
1004.4 hPa   -2.8°
1
76%9 cm
22:00
-1°
Voelt als: -2.1°
1004.1 hPa   -2.3°
1
80%9 cm
 07:33     16:15    Daglengte: 8:42 Morgen
01:00
-0°
Voelt als: -2.2°
1003.1 hPa 1.1 mm -1.0°
2
84%9 cm warningclass
04:00
Voelt als: -0.8°
1002.5 hPa 2.2 mm 0.0°
2
78%9 cm warningclass
07:00
Voelt als: 0.9°
1003.5 hPa 3.9 mm 1.8°
2
80%8 cm
10:00
Voelt als: 2.1°
1005.0 hPa 3.6 mm 2.6°
2
84%7 cm
13:00
Voelt als: 3.0°
1004.7 hPa 4.2 mm 3.0°
2
83%7 cm
16:00
Voelt als: 3.1°
1004.8 hPa 0.6 mm 2.9°
2
65%6 cm
19:00
Voelt als: 3.1°
1005.7 hPa   3.2°
2
77%5 cm
22:00
Voelt als: 3.1°
1005.9 hPa 0.5 mm 3.6°
2
89%5 cm
 07:34     16:15    Daglengte: 8:41 Zondag 06 Dec
01:00
Voelt als: 3.4°
1005.5 hPa 1.4 mm 4.0°
2
90%5 cm
04:00
Voelt als: 4.4°
1004.3 hPa 5.4 mm 4.5°
2
91%4 cm
07:00
Voelt als: 4.4°
1003.7 hPa 15.5 mm 4.2°
1
91%4 cm
10:00
Voelt als: 5.2°
1003.2 hPa 15.9 mm 4.5°
1
100%4 cm
13:00
Voelt als: 3.3°
1001.6 hPa 17.2 mm 4.4°
3
100%4 cm
16:00
Voelt als: 2.9°
1000.1 hPa 18.4 mm 4.7°
4
100%3 cm
19:00
Voelt als: 3.0°
999.5 hPa 23.1 mm 4.4°
3
100%3 cm
22:00
Voelt als: 5.5°
999.8 hPa 22.5 mm 4.6°
1
100%3 cm
 07:35     16:15    Daglengte: 8:40 Maandag 07 Dec
01:00
Voelt als: 3.8°
1000.4 hPa 18.2 mm 3.6°
1
96%3 cm
04:00
Voelt als: 2.1°
1002.1 hPa 28.7 mm 2.4°
1
75%3 cm
07:00
Voelt als: 1.3°
1003.8 hPa 12.8 mm 0.9°
1
51%3 cm
10:00
Voelt als: 3.4°
1005.0 hPa   1.5°
1
52%3 cm
13:00
1005.4 hPa   2.0°
1
43%2 cm
16:00
Voelt als: 2.5°
1007.1 hPa 56.8 mm 1.2°
1
59%
19:00
Voelt als: 0.8°
1007.7 hPa 57.1 mm 0.4°
1
88%
22:00
Voelt als: 0.8°
1007.9 hPa 58.1 mm 0.8°
1
89%
 07:36     16:15    Daglengte: 8:39 Dinsdag 08 Dec
01:00
Voelt als: 0.8°
1008.1 hPa 61.5 mm 1.2°
1
90%
04:00
Voelt als: 1.5°
1008.0 hPa 61.8 mm 1.4°
1
91%
07:00
1007.9 hPa 62.2 mm 1.6°
0
92%
10:00
Voelt als: 2.9°
1007.9 hPa 66.4 mm 2.3°
1
86%
13:00
1007.9 hPa 69.0 mm 2.9°
1
81%
16:00
Voelt als: 3.6°
1008.2 hPa 69.8 mm 3.0°
1
86%
19:00
Voelt als: 2.9°
1008.5 hPa 72.0 mm 3.0°
1
92%
22:00
Voelt als: 1.8°
1008.2 hPa 72.5 mm 2.3°
1
92%
 07:37     16:15    Daglengte: 8:38 Woensdag 09 Dec
01:00
Voelt als: 0.7°
1008.0 hPa 72.5 mm 1.5°
1
92%
04:00
Voelt als: 0.9°
1007.4 hPa 72.6 mm 1.1°
1
92%
07:00
Voelt als: 0.9°
1006.7 hPa 72.6 mm 0.8°
1
92% warningclass
10:00
1007.2 hPa 72.6 mm 1.1°
0
92%
13:00
Voelt als: 1.5°
1007.5 hPa 72.6 mm 1.3°
0
92%
16:00
1008.2 hPa 72.6 mm 1.1°
0
92%
19:00
Voelt als: 1.1°
1009.1 hPa 72.7 mm 1.0°
1
92% warningclass
22:00
Voelt als: 1.3°
1009.5 hPa 73.9 mm 1.0°
1
90%
 07:38     16:15    Daglengte: 8:37 Donderdag 10 Dec
01:00
Voelt als: 1.3°
1009.8 hPa 75.7 mm 1.0°
1
87%
04:00
Voelt als: 1.1°
1010.2 hPa 77.1 mm 0.8°
1
89% warningclass
07:00
Voelt als: 0.7°
1010.7 hPa 77.8 mm 0.7°
1
90% warningclass
10:00
1010.8 hPa 77.9 mm 0.6°
0
85%
13:00
1010.7 hPa 78.0 mm 0.4°
0
80%
16:00
1011.5 hPa 78.0 mm 0.3°
1
81%
19:00
Voelt als: 0.1°
1012.4 hPa 78.0 mm 0.2°
1
82% warningclass
22:00
-0°
Voelt als: -1.4°
1013.5 hPa 78.3 mm -0.6°
1
73% warningclass
 07:39     16:15    Daglengte: 8:36 Vrijdag 11 Dec
01:00
-1°
Voelt als: -2.8°
1014.5 hPa 78.4 mm -1.6°
1
63% warningclass
04:00
-2°
Voelt als: -3.0°
1015.2 hPa 78.5 mm -1.9°
1
73% warningclass
07:00
-2°
Voelt als: -3.2°
1016.0 hPa 78.5 mm -2.3°
1
83% warningclass
10:00
Voelt als: 0.3°
1016.0 hPa 78.5 mm -1.8°
1
86% warningclass
13:00
Voelt als: 2.6°
1015.9 hPa 157.0 mm -1.5°
0
88%
19:00
1017.7 hPa 157.7 mm -1.0°
0
36% warningclass
 07:40     16:15    Daglengte: 8:35 Zaterdag 12 Dec
01:00
-2°
Voelt als: -2.4°
1019.0 hPa 157.9 mm -2.6°
1
44% warningclass
07:00
-3°
1019.7 hPa 158.0 mm -3.8°
1
91% warningclass
13:00
1018.8 hPa 158.2 mm -1.8°
0
14% warningclass
19:00
-2°
1019.0 hPa 158.3 mm -2.5°
1
22% warningclass
 07:41     16:15    Daglengte: 8:34 Zondag 13 Dec
01:00
-3°
Voelt als: -2.8°
1020.5 hPa 158.3 mm -3.1°
0
92% warningclass
07:00
-1°
Voelt als: -1.1°
1020.9 hPa 158.3 mm -3.0°
0
71% warningclass
13:00
Voelt als: 2.7°
1020.5 hPa 158.3 mm -0.1°
0
52%
19:00
Voelt als: 1.7°
1021.6 hPa 158.3 mm -0.3°
1
50%
 07:41     16:15    Daglengte: 8:34 Maandag 14 Dec
01:00
Voelt als: 0.2°
1009.2 hPa 158.3 mm -0.9°
0
1% warningclass
07:00
-0°
Voelt als: -0.3°
1012.7 hPa 158.3 mm -2.5°
1
1% warningclass
13:00
1014.8 hPa 0.4 mm 2.7°
1
77%
19:00
Voelt als: 1.5°
1016.9 hPa 0.4 mm 0.8°
1
78%
 07:42     16:15    Daglengte: 8:33 Dinsdag 15 Dec
01:00
Voelt als: -0.1°
1018.7 hPa 0.5 mm 0.0°
1
77%
07:00
Voelt als: -0.9°
1019.4 hPa 0.5 mm -0.6°
1
70%
13:00
Voelt als: 3.5°
1019.8 hPa 0.8 mm 2.5°
1
67%
19:00
Voelt als: 0.1°
1021.9 hPa 0.4 mm 0.3°
1
66%
 07:43     16:16    Daglengte: 8:33 Woensdag 16 Dec
01:00
Voelt als: -0.9°
1022.9 hPa 0.4 mm -0.6°
1
66%
07:00
-0°
Voelt als: -1.4°
1022.8 hPa 0.3 mm -1.5°
1
67%
13:00
1022.1 hPa 0.4 mm 1.6°
1
71%
19:00
Voelt als: 0.6°
1023.3 hPa 0.2 mm -0.1°
1
78%
 07:43     16:16    Daglengte: 8:33 Donderdag 17 Dec
01:00
Voelt als: -0.9°
1024.3 hPa 0.2 mm -1.0°
1
75%
07:00
-0°
Voelt als: -1.6°
1024.7 hPa 0.2 mm -1.6°
1
71%
13:00
Voelt als: 3.3°
1023.9 hPa 0.4 mm 1.7°
1
71%
19:00
Voelt als: 0.8°
1024.5 hPa 0.5 mm -0.1°
1
72%
 07:44     16:16    Daglengte: 8:32 Vrijdag 18 Dec
01:00
Voelt als: 0.2°
1024.7 hPa 0.7 mm -0.5°
1
79%
07:00
-0°
Voelt als: -0.3°
1024.0 hPa 0.6 mm -1.1°
1
78%
13:00
Voelt als: 3.1°
1022.7 hPa 0.7 mm 1.6°
0
74%
19:00
1023.3 hPa 0.6 mm -0.1°
1
76%
 07:45     16:17    Daglengte: 8:32 Zaterdag 19 Dec
01:00
-0°
Voelt als: -0.7°
1023.6 hPa 0.5 mm -0.9°
1
77%
07:00
-1°
Voelt als: -1.5°
1023.2 hPa 0.7 mm -1.4°
1
74%
13:00
Voelt als: 2.5°
1022.2 hPa 0.8 mm 1.0°
1
71%
  CAPE Lifted Index Hail Supercell Tornado SRH 3km CL BTM PRES CL TOP PRES Swiss DWD icon SMHI TS
 07:32     16:15    Daglengte: 8:43 Vandaag
16:00 0 J/kg 8.2 K 0 % 0 % 0 % 0 m²/s² 0 0 10.03 1
17:00 0 J/kg 7.2 K 0 % 0 % 0 % 0 m²/s² 0 0 8.49 3
18:00 0 J/kg 6.1 K 0 % 0 % 0 % 0 m²/s² 0 0 7.69 3
19:00 0 J/kg 5.7 K 0 % 0 % 0 % 0 m²/s² 0 0 7.47 3
20:00 0 J/kg 5.8 K 0 % 0 % 0 % 0 m²/s² 0 0 7.3 3
21:00 0 J/kg 5.8 K 0 % 0 % 0 % 0 m²/s² 0 0 6.91 71
22:00 0 J/kg 6.0 K 0 % 0 % 0 % 0 m²/s² 0 0 6.15 66
23:00 0 J/kg 5.0 K 0 % 0 % 0 % 0 m²/s² 0 0 5.42 66
 07:33     16:15    Daglengte: 8:42 Morgen
00:00 0 J/kg 5.5 K 0 % 0 % 0 % 0 m²/s² 0 0 6.52 66
01:00 0 J/kg 4.9 K 0 % 0 % 0 % 0 m²/s² 0 0 5.26 66
02:00 0 J/kg 3.4 K 0 % 0 % 0 % 0 m²/s² 0 0 3.73 66
03:00 0 J/kg 2.5 K 0 % 0 % 0 % 0 m²/s² 0 0 3.43 66
04:00 0 J/kg 2.2 K 0 % 0 % 0 % 0 m²/s² 0 0 2.23 66
05:00 0 J/kg 1.9 K 0 % 0 % 0 % 0 m²/s² 0 0 2.32 66
06:00 0 J/kg 2.8 K 0 % 0 % 0 % 0 m²/s² 0 0 3.61 66
07:00 0 J/kg 3.0 K 0 % 0 % 0 % 0 m²/s² 0 0 3.75 66
08:00 0 J/kg 1.8 K 0 % 0 % 0 % 0 m²/s² 0 0 2.16 66
09:00 0 J/kg 1.5 K 0 % 0 % 0 % 0 m²/s² 0 0 2.13 66
10:00 0 J/kg 1.2 K 0 % 0 % 0 % 0 m²/s² 0 0 1.56 61
11:00 0 J/kg 1.1 K 0 % 0 % 0 % 0 m²/s² 0 0 1.85 61
12:00 18 J/kg 0.7 K 0 % 0 % 0 % 0 m²/s² 0 0 1.27 61
13:00 34 J/kg 0.9 K 0 % 0 % 0 % 0 m²/s² 0 0 1.32 61
14:00 62 J/kg 1.1 K 0 % 0 % 0 % 0 m²/s² 0 0 2.09 61
15:00 8 J/kg 1.1 K 0 % 0 % 0 % 0 m²/s² 0 0 2.06 61
16:00 0 J/kg 0.6 K 0 % 0 % 0 % 0 m²/s² 0 0 1.44 61
17:00 0 J/kg 0.2 K 0 % 0 % 0 % 0 m²/s² 0 0 0.71 61
18:00 0 J/kg -0.4 K 0 % 0 % 0 % 0 m²/s² 0 0 -0.07 45
19:00 0 J/kg -0.9 K 0 % 0 % 0 % 0 m²/s² 0 0 -0.57 45
20:00 0 J/kg -1.1 K 0 % 0 % 0 % 0 m²/s² 0 0 -0.68 3
21:00 0 J/kg -0.7 K 0 % 0 % 0 % 0 m²/s² 0 0 -0.25 61
22:00 0 J/kg -0.4 K 0 % 0 % 0 % 0 m²/s² 0 0 0.02 61
23:00 0 J/kg -0.2 K 0 % 0 % 0 % 0 m²/s² 0 0 -0.11 61
 07:34     16:15    Daglengte: 8:41 Zondag 06 Dec
00:00 0 J/kg -0.2 K 0 % 0 % 0 % 0 m²/s² 0 0 0.13 61
01:00 0 J/kg -0.1 K 0 % 0 % 0 % 0 m²/s² 0 0 0.2 61
02:00 0 J/kg -0.2 K 0 % 0 % 0 % 0 m²/s² 0 0 0.1 61
03:00 0 J/kg -0.5 K 0 % 0 % 0 % 0 m²/s² 0 0 -0.2 63
04:00 0 J/kg 0.1 K 0 % 0 % 0 % 0 m²/s² 0 0 0.13 63
05:00 13 J/kg 1.7 K 0 % 0 % 0 % 0 m²/s² 0 0 1.94 63
06:00 14 J/kg 2.6 K 0 % 0 % 0 % 0 m²/s² 0 0 2.63 63
07:00 0 J/kg 0.5 K 0 % 0 % 0 % 0 m²/s² 0 0 0.86 63
08:00 0 J/kg -0.1 K 0 % 0 % 0 % 0 m²/s² 0 0 0.14 63
09:00 0 J/kg -1.1 K 0 % 0 % 0 % 0 m²/s² 0 0 -0.86 61
10:00 0 J/kg -0.8 K 0 % 0 % 0 % 0 m²/s² 0 0 -0.71 61
11:00 0 J/kg 0.8 K 0 % 0 % 0 % 0 m²/s² 0 0 0.8 63
12:00 0 J/kg 2.0 K 0 % 0 % 0 % 0 m²/s² 0 0 2.12 63
13:00 0 J/kg 2.0 K 0 % 0 % 0 % 0 m²/s² 0 0 2.24 63
14:00 0 J/kg 3.1 K 0 % 0 % 0 % 0 m²/s² 0 0 3.46 63
15:00 0 J/kg 2.9 K 0 % 0 % 0 % 0 m²/s² 0 0 3.11 63
16:00 0 J/kg 2.3 K 0 % 0 % 0 % 0 m²/s² 0 0 2.3 63
17:00 0 J/kg 3.7 K 0 % 0 % 0 % 0 m²/s² 0 0 3.7 63
18:00 0 J/kg 3.1 K 0 % 0 % 0 % 0 m²/s² 0 0 3.22 63
19:00 0 J/kg 2.4 K 0 % 0 % 0 % 0 m²/s² 0 0 2.82 63
20:00 0 J/kg 2.8 K 0 % 0 % 0 % 0 m²/s² 0 0 3.04 63
21:00 0 J/kg 2.4 K 0 % 0 % 0 % 0 m²/s² 0 0 2.49 61
22:00 0 J/kg 2.1 K 0 % 0 % 0 % 0 m²/s² 0 0 2.34 61
23:00 13 J/kg 3.7 K 0 % 0 % 0 % 0 m²/s² 0 0 3.94 61
 07:35     16:15    Daglengte: 8:40 Maandag 07 Dec
00:00 0 J/kg 3.6 K 0 % 0 % 0 % 0 m²/s² 0 0 3.84 61
01:00 0 J/kg 3.8 K 0 % 0 % 0 % 0 m²/s² 0 0 4.28 55
02:00 0 J/kg 4.3 K 0 % 0 % 0 % 0 m²/s² 0 0 5.65 61
03:00 0 J/kg 4.8 K 0 % 0 % 0 % 0 m²/s² 0 0 6.6 61
04:00 0 J/kg 6.3 K 0 % 0 % 0 % 0 m²/s² 0 0 9.09 61
05:00 0 J/kg 6.2 K 0 % 0 % 0 % 0 m²/s² 0 0 11.12 61
06:00 0 J/kg 5.6 K 0 % 0 % 0 % 0 m²/s² 0 0 12.38 51
07:00 0 J/kg 4.3 K 0 % 0 % 0 % 0 m²/s² 0 0 8.71 45
08:00 0 J/kg 3.2 K 0 % 0 % 0 % 0 m²/s² 0 0 8 45
09:00 0 J/kg 2.7 K 0 % 0 % 0 % 0 m²/s² 0 0 5.73 45
10:00 0 J/kg 2.3 K 0 % 0 % 0 % 0 m²/s² 0 0 2.69 45
11:00 0 J/kg 1.9 K 0 % 0 % 0 % 0 m²/s² 0 0 2.32 45
12:00 0 J/kg 1.4 K 0 % 0 % 0 % 0 m²/s² 0 0 1.88 45
13:00 0 J/kg 1.3 K 0 % 0 % 0 % 0 m²/s² 0 0 1.72 3
Temp Baro Wind Neerslag
  EWN Forecast EWN WRFDA DWD ICON FMI HIRLAM MET Norway GFS
 07:32     16:15    Daglengte: 8:43 Vandaag
16:00 0.9° 1004.2 hPa 1.0 m/s 0.0 mm 2.0° 999.7 hPa 3.3 m/s 0.0 mm -0.8° 1005.0 hPa 0.9 m/s -2.0 mm 0.9° 1005.2 hPa 1.4 m/s 0.0 mm 1.6° 1004.4 hPa 0.7 m/s 1.3° 1001.9 hPa 1.2 m/s
19:00 -1.8° 1004.4 hPa 0.9 m/s 0.0 mm 2.2° 1000.1 hPa 3.5 m/s 0.0 mm -2.7° 1004.8 hPa 0.4 m/s 0.0 mm -3.2° 1006.4 hPa 0.8 m/s 0.0 mm 1.6° 1004.6 hPa 0.8 m/s 1.9° 1002.3 hPa 1.2 m/s
22:00 -1.4° 1004.1 hPa 0.9 m/s 0.0 mm 3.2° 1000.2 hPa 4.2 m/s 0.0 mm -2.0° 1004.4 hPa 0.3 m/s 0.4 mm -4.8° 1005.8 hPa 0.8 m/s 0.0 mm 1.9° 1004.3 hPa 0.5 m/s 1.7° 1002.6 hPa 1.2 m/s
 07:33     16:15    Daglengte: 8:42 Morgen
01:00 -0.4° 1003.1 hPa 1.5 m/s 1.1 mm 3.4° 999.3 hPa 6.1 m/s 0.3 mm -1.6° 1003.4 hPa 0.1 m/s 1.5 mm -2.4° 1004.1 hPa 1.3 m/s 0.0 mm 2.1° 1003.3 hPa 1.0 m/s 3.2° 1001.9 hPa 1.5 m/s
04:00 0.8° 1002.5 hPa 1.5 m/s 2.2 mm 5.6° 997.9 hPa 5.8 m/s 0.9 mm -0.3° 1003.3 hPa 0.4 m/s 2.8 mm 0.1° 1003.9 hPa 1.1 m/s 0.0 mm 2.8° 1002.6 hPa 1.3 m/s 4.3° 1001.7 hPa 1.6 m/s
07:00 2.6° 1003.5 hPa 1.7 m/s 3.9 mm 6.2° 998.4 hPa 6.9 m/s 3.2 mm -0.4° 1004.6 hPa 0.4 m/s 5.7 mm 2.9° 1004.9 hPa 0.9 m/s 0.0 mm 2.8° 1003.6 hPa 1.3 m/s 5.0° 1002.5 hPa 1.9 m/s
10:00 3.7° 1005.0 hPa 1.8 m/s 3.6 mm 8.5° 999.3 hPa 8.0 m/s 3.8 mm 0.8° 1005.3 hPa 0.3 m/s 5.3 mm 4.2° 1006.2 hPa 1.3 m/s 0.0 mm 3.7° 1005.2 hPa 1.4 m/s 6.4° 1003.5 hPa 1.5 m/s
13:00 4.5° 1004.7 hPa 1.8 m/s 4.2 mm 9.1° 1000.6 hPa 5.7 m/s 4.8 mm 2.5° 1004.4 hPa 0.3 m/s 6.1 mm 4.3° 1006.7 hPa 1.5 m/s 0.0 mm 5.4° 1004.8 hPa 1.5 m/s 6.9° 1003.2 hPa 2.2 m/s
16:00 4.8° 1004.8 hPa 2.0 m/s 0.6 mm 8.1° 1000.4 hPa 7.7 m/s 7.1 mm 2.5° 1004.6 hPa 0.7 m/s 1.3 mm 4.5° 1006.9 hPa 1.7 m/s 0.0 mm 6.5° 1004.9 hPa 1.2 m/s 6.0° 1002.9 hPa 2.0 m/s
19:00 4.6° 1005.7 hPa 1.8 m/s 0.0 mm 7.5° 1002.3 hPa 5.9 m/s 7.2 mm 1.8° 1005.0 hPa 0.9 m/s 0.2 mm 4.7° 1007.3 hPa 1.4 m/s 0.0 mm 5.1° 1005.8 hPa 0.7 m/s 5.5° 1004.5 hPa 1.6 m/s
22:00 4.6° 1005.9 hPa 1.9 m/s 0.5 mm 7.6° 1001.8 hPa 5.0 m/s 7.4 mm 3.1° 1004.5 hPa 0.9 m/s 0.6 mm 5.7° 1007.2 hPa 2.2 m/s 0.0 mm 4.5° 1006.2 hPa 0.6 m/s 6.0° 1005.1 hPa 1.7 m/s
 07:34     16:15    Daglengte: 8:41 Zondag 06 Dec
01:00 5.1° 1005.5 hPa 2.1 m/s 1.4 mm 8.4° 1001.2 hPa 7.0 m/s 8.2 mm 4.0° 1003.7 hPa 0.6 m/s 1.4 mm 6.2° 1007.2 hPa 2.7 m/s 0.0 mm 4.9° 1006.0 hPa 0.5 m/s 5.9° 1004.9 hPa 1.6 m/s
04:00 5.8° 1004.3 hPa 1.9 m/s 5.4 mm 8.2° 1000.2 hPa 3.8 m/s 10.9 mm 3.7° 1003.1 hPa 0.8 m/s 11.1 mm 6.1° 1006.1 hPa 2.7 m/s 0.0 mm 6.1° 1004.5 hPa 0.8 m/s 5.7° 1003.9 hPa 1.2 m/s
07:00 5.4° 1003.7 hPa 1.5 m/s 15.5 mm 5.6° 1001.0 hPa 2.8 m/s 58.0 mm 3.9° 1003.6 hPa 0.1 m/s 21.6 mm 6.4° 1005.0 hPa 2.5 m/s 0.0 mm 5.6° 1003.5 hPa 0.4 m/s 5.7° 1003.4 hPa 1.1 m/s
10:00 5.9° 1003.2 hPa 1.3 m/s 15.9 mm 8.3° 999.5 hPa 7.1 m/s 85.3 mm 3.9° 1004.4 hPa 0.3 m/s 8.3 mm 6.2° 1003.2 hPa 0.4 m/s 5.9° 1002.9 hPa 1.2 m/s
13:00 5.7° 1001.6 hPa 3.1 m/s 17.2 mm 9.0° 998.2 hPa 7.5 m/s 87.5 mm 4.7° 1003.4 hPa 0.6 m/s 11.1 mm 5.7° 1001.6 hPa 2.6 m/s 5.8° 1000.8 hPa 1.4 m/s
16:00 5.9° 1000.1 hPa 4.0 m/s 18.4 mm 7.9° 993.7 hPa 7.7 m/s 92.0 mm 4.6° 1002.9 hPa 0.4 m/s 10.7 mm 6.2° 1000.0 hPa 4.1 m/s 5.6° 998.7 hPa 1.6 m/s
19:00 5.2° 999.5 hPa 2.7 m/s 23.1 mm 7.4° 993.7 hPa 6.8 m/s 111.1 mm 4.5° 1003.0 hPa 1.4 m/s 13.0 mm 5.4° 999.3 hPa 2.3 m/s 4.9° 997.2 hPa 1.2 m/s
22:00 5.6° 999.8 hPa 1.0 m/s 22.5 mm 7.0° 994.6 hPa 5.8 m/s 113.5 mm 4.2° 1001.6 hPa 0.5 m/s 6.7 mm 6.2° 999.8 hPa 0.4 m/s 4.8° 997.5 hPa 0.9 m/s
 07:35     16:15    Daglengte: 8:40 Maandag 07 Dec
01:00 4.2° 1000.4 hPa 1.0 m/s 18.2 mm 5.2° 996.4 hPa 2.0 m/s 113.7 mm 4.0° 1000.8 hPa 0.1 m/s 2.2 mm 4.6° 1000.6 hPa 1.0 m/s 5.1° 998.1 hPa 0.7 m/s
04:00 3.2° 1002.1 hPa 1.4 m/s 28.7 mm 2.1° 997.8 hPa 2.6 m/s 113.7 mm 4.0° 1001.8 hPa 0.4 m/s 1.4 mm 3.4° 1002.5 hPa 1.3 m/s 4.9° 999.3 hPa 1.7 m/s
07:00 2.0° 1003.8 hPa 1.0 m/s 12.8 mm 0.9° 1000.2 hPa 1.0 m/s 113.7 mm 3.4° 1003.5 hPa 0.7 m/s 0.3 mm 2.3° 1004.3 hPa 1.6 m/s 4.1° 1001.9 hPa 1.7 m/s
10:00 4.0° 1005.0 hPa 1.1 m/s 0.0 mm 4.4° 1001.2 hPa 1.1 m/s 113.7 mm 2.6° 1006.2 hPa 0.3 m/s 0.0 mm 4.2° 1005.2 hPa 1.3 m/s 5.5° 1003.7 hPa 1.0 m/s
13:00 5.6° 1005.4 hPa 0.8 m/s 0.0 mm 4.9° 1001.1 hPa 0.6 m/s 114.8 mm 5.1° 1005.5 hPa 0.4 m/s 0.0 mm 6.1° 1006.2 hPa 1.0 m/s 6.2° 1003.6 hPa 0.8 m/s
16:00 3.0° 1007.1 hPa 1.0 m/s 56.8 mm 2.8° 1007.3 hPa 1.0 m/s 4.6° 1005.0 hPa 1.2 m/s 56.8 mm
19:00 1.5° 1007.7 hPa 1.0 m/s 57.1 mm 1.2° 1007.8 hPa 1.0 m/s 4.3° 1006.0 hPa 0.8 m/s 57.1 mm
22:00 1.4° 1007.9 hPa 1.0 m/s 58.1 mm 1.1° 1008.0 hPa 1.0 m/s 3.7° 1006.8 hPa 0.7 m/s 58.1 mm
 07:36     16:15    Daglengte: 8:39 Dinsdag 08 Dec
01:00 1.3° 1008.1 hPa 0.9 m/s 61.5 mm 1.1° 1008.3 hPa 1.0 m/s 3.6° 1006.2 hPa 0.1 m/s 61.5 mm
04:00 1.5° 1008.0 hPa 0.7 m/s 61.8 mm 1.3° 1008.3 hPa 0.7 m/s 3.8° 1004.9 hPa 1.1 m/s 61.8 mm
07:00 1.7° 1007.9 hPa 0.5 m/s 62.2 mm 1.5° 1008.3 hPa 0.4 m/s 3.5° 1003.7 hPa 1.5 m/s 62.2 mm
10:00 2.9° 1007.9 hPa 0.6 m/s 66.4 mm 2.9° 1008.3 hPa 0.6 m/s 3.6° 1003.4 hPa 0.7 m/s 66.4 mm
13:00 4.2° 1007.9 hPa 0.8 m/s 69.0 mm 4.2° 1008.4 hPa 0.8 m/s 3.9° 1002.6 hPa 0.8 m/s 69.0 mm
16:00 3.7° 1008.2 hPa 0.8 m/s 69.8 mm 3.7° 1008.6 hPa 0.9 m/s 3.8° 1002.8 hPa 0.5 m/s 69.8 mm
19:00 3.1° 1008.5 hPa 0.9 m/s 72.0 mm 3.1° 1008.9 hPa 0.9 m/s 3.5° 1003.7 hPa 0.8 m/s 72.0 mm
22:00 2.4° 1008.2 hPa 1.0 m/s 72.5 mm 2.4° 1008.5 hPa 1.0 m/s 3.2° 1004.4 hPa 1.5 m/s 72.5 mm
 07:37     16:15    Daglengte: 8:38 Woensdag 09 Dec
01:00 1.6° 1008.0 hPa 1.1 m/s 72.5 mm 1.6° 1008.2 hPa 1.1 m/s 1.8° 1005.6 hPa 1.3 m/s 72.5 mm
04:00 1.2° 1007.4 hPa 0.8 m/s 72.6 mm 1.4° 1007.5 hPa 0.9 m/s 0.1° 1006.3 hPa 0.8 m/s 72.6 mm
07:00 0.9° 1006.7 hPa 0.6 m/s 72.6 mm 1.1° 1006.7 hPa 0.6 m/s -1.1° 1006.5 hPa 0.5 m/s 72.6 mm
10:00 1.3° 1007.2 hPa 0.5 m/s 72.6 mm 1.2° 1007.2 hPa 0.5 m/s 1.6° 1007.2 hPa 0.1 m/s 72.6 mm
13:00 1.5° 1007.5 hPa 0.4 m/s 72.6 mm 1.4° 1007.7 hPa 0.4 m/s 3.2° 1004.7 hPa 0.2 m/s 72.6 mm
16:00 1.3° 1008.2 hPa 0.5 m/s 72.6 mm 1.2° 1008.6 hPa 0.5 m/s 1.8° 1003.7 hPa 0.5 m/s 72.6 mm
19:00 1.1° 1009.1 hPa 0.6 m/s 72.7 mm 1.1° 1009.5 hPa 0.6 m/s 1.5° 1004.8 hPa 1.1 m/s 72.7 mm
22:00 1.3° 1009.5 hPa 0.7 m/s 73.9 mm 1.3° 1009.9 hPa 0.7 m/s 1.7° 1004.8 hPa 0.7 m/s 73.9 mm
 07:38     16:15    Daglengte: 8:37 Donderdag 10 Dec
01:00 1.5° 1009.8 hPa 0.8 m/s 75.7 mm 1.5° 1010.3 hPa 0.8 m/s 1.7° 1004.3 hPa 1.0 m/s 75.7 mm
04:00 1.1° 1010.2 hPa 0.7 m/s 77.1 mm 1.1° 1010.8 hPa 0.7 m/s 1.5° 1004.0 hPa 1.0 m/s 77.1 mm
07:00 0.7° 1010.7 hPa 0.6 m/s 77.8 mm 0.7° 1011.3 hPa 0.6 m/s 1.1° 1004.6 hPa 0.9 m/s 77.8 mm
10:00 2.0° 1010.8 hPa 0.4 m/s 77.9 mm 1.9° 1011.3 hPa 0.3 m/s 2.2° 1005.6 hPa 0.6 m/s 77.9 mm
13:00 3.2° 1010.7 hPa 0.1 m/s 78.0 mm 3.2° 1011.3 hPa 0.1 m/s 3.2° 1004.5 hPa 0.4 m/s 78.0 mm
16:00 1.9° 1011.5 hPa 0.5 m/s 78.0 mm 2.0° 1012.1 hPa 0.6 m/s 0.9° 1004.3 hPa 0.5 m/s 78.0 mm
19:00 0.7° 1012.4 hPa 0.9 m/s 78.0 mm 0.7° 1013.0 hPa 1.0 m/s 0.2° 1005.8 hPa 0.2 m/s 78.0 mm
22:00 -0.4° 1013.5 hPa 1.1 m/s 78.3 mm -0.4° 1014.1 hPa 1.1 m/s 0.4° 1006.8 hPa 0.9 m/s 78.3 mm
 07:39     16:15    Daglengte: 8:36 Vrijdag 11 Dec
01:00 -1.5° 1014.5 hPa 1.2 m/s 78.4 mm -1.6° 1015.2 hPa 1.2 m/s -0.2° 1006.8 hPa 0.8 m/s 78.4 mm
04:00 -1.5° 1015.2 hPa 1.2 m/s 78.5 mm -1.6° 1016.0 hPa 1.2 m/s -0.8° 1006.8 hPa 0.9 m/s 78.5 mm
07:00 -1.7° 1016.0 hPa 1.2 m/s 78.5 mm -1.6° 1016.8 hPa 1.3 m/s -2.8° 1007.0 hPa 0.5 m/s 78.5 mm
10:00 0.5° 1016.0 hPa 0.8 m/s 78.5 mm 0.5° 1016.8 hPa 0.8 m/s 0.9° 1006.5 hPa 0.4 m/s 78.5 mm
13:00 2.6° 1015.9 hPa 0.3 m/s 78.6 mm 2.6° 1016.9 hPa 0.3 m/s 3.0° 1005.1 hPa 0.2 m/s 78.6 mm
19:00 1.0° 1017.7 hPa 0.1 m/s 78.9 mm 1.1° 1018.8 hPa 0.1 m/s -0.3° 1005.6 hPa 0.5 m/s 78.9 mm
 07:40     16:15    Daglengte: 8:35 Zaterdag 12 Dec
01:00 -2.1° 1019.0 hPa 0.8 m/s 79.0 mm -2.2° 1020.4 hPa 0.8 m/s -0.5° 1004.1 hPa 0.3 m/s 79.0 mm
07:00 -3.4° 1019.7 hPa 0.5 m/s 79.0 mm -3.7° 1021.2 hPa 0.5 m/s -0.4° 1002.6 hPa 0.5 m/s 79.0 mm
13:00 0.3° 1018.8 hPa 0.5 m/s 79.2 mm 0.0° 1020.3 hPa 0.5 m/s 3.3° 1001.8 hPa 0.4 m/s 79.2 mm
19:00 -2.4° 1019.0 hPa 0.6 m/s 79.2 mm -2.7° 1020.4 hPa 0.6 m/s 0.4° 1003.2 hPa 0.4 m/s 79.2 mm
 07:41     16:15    Daglengte: 8:34 Zondag 13 Dec
01:00 -2.8° 1020.5 hPa 0.4 m/s 79.2 mm -3.0° 1022.0 hPa 0.4 m/s -0.2° 1004.0 hPa 0.4 m/s 79.2 mm
07:00 -1.1° 1020.9 hPa 0.5 m/s 79.2 mm -1.1° 1022.5 hPa 0.5 m/s -1.1° 1002.9 hPa 0.5 m/s 79.2 mm
13:00 2.7° 1020.5 hPa 0.4 m/s 79.2 mm 2.6° 1022.2 hPa 0.4 m/s 3.9° 1001.8 hPa 0.1 m/s 79.2 mm
19:00 1.7° 1021.6 hPa 0.5 m/s 79.2 mm 1.8° 1023.1 hPa 0.5 m/s 0.8° 1005.1 hPa 0.8 m/s 79.2 mm
 07:41     16:15    Daglengte: 8:34 Maandag 14 Dec
01:00 0.2° 1009.2 hPa 0.5 m/s 79.2 mm 0.2° 1009.2 hPa 0.5 m/s 79.2 mm
07:00 -0.3° 1012.7 hPa 0.5 m/s 79.2 mm -0.3° 1012.7 hPa 0.5 m/s 79.2 mm
13:00 4.2° 1014.8 hPa 0.6 m/s 0.4 mm
19:00 1.7° 1016.9 hPa 0.8 m/s 0.4 mm
 07:42     16:15    Daglengte: 8:33 Dinsdag 15 Dec
01:00 0.9° 1018.7 hPa 1.1 m/s 0.5 mm
07:00 0.5° 1019.4 hPa 1.3 m/s 0.5 mm
13:00 4.0° 1019.8 hPa 1.1 m/s 0.8 mm
19:00 1.2° 1021.9 hPa 1.2 m/s 0.4 mm
 07:43     16:16    Daglengte: 8:33 Woensdag 16 Dec
01:00 0.3° 1022.9 hPa 1.2 m/s 0.4 mm
07:00 -0.2° 1022.8 hPa 1.2 m/s 0.3 mm
13:00 3.6° 1022.1 hPa 0.7 m/s 0.4 mm
19:00 0.9° 1023.3 hPa 0.8 m/s 0.2 mm
 07:43     16:16    Daglengte: 8:33 Donderdag 17 Dec
01:00 0.0° 1024.3 hPa 1.0 m/s 0.2 mm
07:00 -0.4° 1024.7 hPa 1.2 m/s 0.2 mm
13:00 3.3° 1023.9 hPa 0.7 m/s 0.4 mm
19:00 0.8° 1024.5 hPa 0.6 m/s 0.5 mm
 07:44     16:16    Daglengte: 8:32 Vrijdag 18 Dec
01:00 0.2° 1024.7 hPa 0.7 m/s 0.7 mm
07:00 -0.2° 1024.0 hPa 0.7 m/s 0.6 mm
13:00 3.1° 1022.7 hPa 0.5 m/s 0.7 mm
19:00 0.7° 1023.3 hPa 0.7 m/s 0.6 mm
 07:45     16:17    Daglengte: 8:32 Zaterdag 19 Dec
01:00 -0.1° 1023.6 hPa 0.9 m/s 0.5 mm
07:00 -0.5° 1023.2 hPa 1.0 m/s 0.7 mm
13:00 2.8° 1022.2 hPa 0.9 m/s 0.8 mm
FMI Hirlam - 7.5 km EWN WRFDA - 12 km DWD ICON - 7 km GFS - 25 km Basiskaart






























































Updatetijd (Europe/Amsterdam) Resolutie Lengte Stap
FMI Hirlam 13:00, 19:00, 01:00, 07:00 7.5 km 49h 1h
EWN WRFDA 09:30, 15:30, 21:30, 03:30 12 km 73h 1h
DWD ICON 10:45, 16:45, 22:45, 04:45 7 km 75h 1h
GFS 13:00, 19:00, 01:00, 07:00 25 km 237h 3h
30+ mm
25-30 mm
20-25 mm
15-20 mm
10-15 mm
6-10 mm
4-6 mm
2-4 mm
1-2 mm
0.5-1 mm
0.2-0.5 mm
0.1-0.2 mm
30+ mm
25-30 mm
20-25 mm
15-20 mm
10-15 mm
6-10 mm
4-6 mm
2-4 mm
1-2 mm
0.5-1 mm
0.2-0.5 mm
0.1-0.2 mm
Sneeuwval
Natte sneeuw
Hagel
Vorst
30+ mm
25-30 mm
20-25 mm
15-20 mm
10-15 mm
6-10 mm
4-6 mm
2-4 mm
1-2 mm
0.5-1 mm
0.2-0.5 mm
0.1-0.2 mm
Sneeuwval
Natte sneeuw
Hagel
Vorst
Onweer
50 mm
40 mm
30 mm
26 mm
22 mm
18 mm
14 mm
10 mm
9 mm
8 mm
7 mm
6 mm
5 mm
4.5 mm
4 mm
3.5 mm
3 mm
2.5 mm
2 mm
1.5 mm
1 mm
0.8 mm
0.6 mm
0.4 mm
0.2 mm
0.05 mm
35°
30°
25°
20°
15°
10°
-5°
-10°
-15°
-20°
-25°
-30°
-35°
33> m/s
29 m/s
25 m/s
21 m/s
17 m/s
14 m/s
11 m/s
8 m/s
5 m/s
3 m/s
0 m/s
2600 J/kg
2400 J/kg
2200 J/kg
2000 J/kg
1800 J/kg
1600 J/kg
1400 J/kg
1200 J/kg
1000 J/kg
800 J/kg
600 J/kg
400 J/kg
200 J/kg
70 dBZ
65 dBZ
60 dBZ
55 dBZ
50 dBZ
45 dBZ
40 dBZ
35 dBZ
30 dBZ
25 dBZ
20 dBZ
15 dBZ
10 dBZ
5 dBZ
-1 K
-2 K
-3 K
-4 K
-5 K
-6 K
-7 K
-8 K
-9 K
950 m²/s²
900 m²/s²
850 m²/s²
800 m²/s²
750 m²/s²
700 m²/s²
650 m²/s²
600 m²/s²
550 m²/s²
500 m²/s²
450 m²/s²
400 m²/s²
350 m²/s²
300 m²/s²
250 m²/s²
200 m²/s²
150 m²/s²
100 m²/s²
46 m/s
44 m/s
42 m/s
40 m/s
38 m/s
36 m/s
34 m/s
32 m/s
30 m/s
28 m/s
26 m/s
24 m/s
22 m/s
20 m/s
16 m/s
12 m/s
8 m/s
4 m/s
30 m/s
28 m/s
26 m/s
24 m/s
22 m/s
20 m/s
18 m/s
16 m/s
14 m/s
12 m/s
10 m/s
8 m/s
6 m/s
4 m/s
2 m/s
3.0
2.8
2.6
2.4
2.2
2.0
1.8
1.6
1.4
1.2
1.0
0.8
0.6
0.4
0.2
15
14
13
12
11
10
9
8
7
6
5
4
3
2
1
90%
80%
70%
60%
50%
40%
30%
20%
10%
42
40
38
36
34
32
30
28
26
24
22
20
18
16
14
12
90+ cm
80-90 cm
70-80 cm
60-70 cm
50-60 cm
40-50 cm
30-40 cm
20-30 cm
10-20 cm
1-10 cm
Sneeuwval
Natte sneeuw
Regen
>120 mm
115 mm
110 mm
105 mm
100 mm
95 mm
90 mm
85 mm
80 mm
75 mm
70 mm
65 mm
60 mm
55 mm
50 mm
45 mm
45 mm
40 mm
35 mm
30 mm
25 mm
20 mm
15 mm
10 mm
5 mm
0.1 mm
960 hPa
880 hPa
800 hPa
720 hPa
640 hPa
560 hPa
584 gpdm
568 gpdm
552 gpdm
536 gpdm
520 gpdm
504 gpdm
488 gpdm
Extreem zwaar Noodweer Kans op onweer
15% 15% 5% 50% 15%

Dag




Kaart






35°
30°
25°
20°
15°
10°
-5°
-10°
-15°
-20°
-25°
-30°
-35°
33> m/s
29 m/s
25 m/s
21 m/s
17 m/s
14 m/s
11 m/s
8 m/s
5 m/s
3 m/s
0 m/s
Extreem zwaar Noodweer Kans op onweer
15% 15% 5% 50% 15%
>120 mm
115 mm
110 mm
105 mm
100 mm
95 mm
90 mm
85 mm
80 mm
75 mm
70 mm
65 mm
60 mm
55 mm
50 mm
45 mm
45 mm
40 mm